Voltar ao catálogo

COSMOS 2251 DEB

AtivoLEO
NORAD 33789·DEBRIS·🇷🇺 Russia

Lançado Jun 16, 1993 de Plesetsk Cosmodrome

Loading…

Próximas Passagens (próximas 24 horas)

TLE

AtualizadoSource: Space-Track

Época: Sep 14, 2026, 15:47 UTC

1 33789U 93036AE  26257.65830845  .00000253  00000-0  18055-3 0  9994
2 33789  74.0657 338.9733 0239750  29.7418 120.4724 13.89112438889267

Acompanhe COSMOS 2251 DEB em tempo real com AllMySat

Download on the App Store